Torna al catalogo

STARLINK-3450

AttivoComunicazioniVLEO
NORAD 51734·PAYLOAD·🇺🇸 United States

Lanciato Feb 21, 2022 da Cape Canaveral Space Force Station

Loading…

Prossimi Passaggi (prossime 24 ore)

TLE

AggiornatoSource: CelesTrak SupGP

Epoca: Sep 14, 2026, 21:27 UTC

1 51734C 22016W   26257.89423611 -.00067687  00000+0 -20005-2 0  2578
2 51734  53.1577 175.5806 0001390  98.5225 338.7084 15.34414004    16

Traccia STARLINK-3450 in tempo reale con AllMySat

Download on the App Store